Regional Weather Roundup
Issued by NWS

Home | Current Version | Previous Version | Graphics & Text | Print | Product List | Glossary On
Versions: 1 2 3 4 5 6 7 8 9 10 11 12 13 14 15 16 17 18 19 20 21 22 23 24 25 26 27 28 29 30 31 32 33 34 35 36 37 38 39 40 41 42 43 44 45 46 47 48 49 50
491
ASUS45 KTFX 120010
RWRMT
MONTANA REGIONAL WEATHER ROUNDUP
NATIONAL WEATHER SERVICE GREAT FALLS MT
500 PM MST THU FEB 11 2016

NOTE: "FAIR" INDICATES FEW OR NO CLOUDS BELOW 12000 FEET WITH NO
SIGNIFICANT WEATHER AND/OR OBSTRUCTIONS TO VISIBILITY.

MTZ001>007-043-120100-
WEST OF THE DIVIDE

CITY           SKY/WX    TMP DP  RH WIND       PRES   REMARKS
KALISPELL      MOCLDY    41  33  73 CALM      30.25S
MISSOULA       CLOUDY    46  31  55 SE5       30.25S
BUTTE          CLOUDY    42  29  59 N6        30.26R
MULLAN PASS    CLOUDY    37  26  64 VRB6      30.24F
ANACONDA         N/A     45  27  49 CALM      30.26R
DEER LODGE       N/A     45  32  61 CALM      30.27R
HAMILTON         N/A     48  34  57 N5        30.26R
$$

MTZ008-052>055-120100-
SOUTHWEST MONTANA

CITY           SKY/WX    TMP DP  RH WIND       PRES   REMARKS
BOZEMAN        CLOUDY    37  30  75 CALM      30.24S
DILLON         CLOUDY    40  30  67 SE13      30.25R
ENNIS          CLOUDY    43  28  56 S13       30.31R
$$

MTZ009-010-012-014-046-048-049-054-120100-
EAST SLOPES AND CENTRAL MONTANA

CITY           SKY/WX    TMP DP  RH WIND       PRES   REMARKS
CUT BANK       CLOUDY    43  31  62 NE8       30.23R
GREAT FALLS    CLOUDY    47  28  47 NE9       30.22R
MALMSTROM AFB  CLOUDY    48  30  50 N12       30.23R
HELENA         CLOUDY    51  26  37 NW3       30.22R
CHOTEAU          N/A     46  28  49 NE7       30.24R
$$

MTZ011-013-016-021-045-047-050-051-120100-
NORTH CENTRAL MONTANA

CITY           SKY/WX    TMP DP  RH WIND       PRES   REMARKS
HAVRE          CLOUDY    37  31  78 W3        30.24R
LEWISTOWN      PTCLDY    44  28  53 N9        30.21R
N BAR RANCH      N/A     45  23  42 N13       30.21R
CHINOOK          N/A     37  32  81 W10       30.23S WCI  30
$$

MTZ017>020-022>027-061-062-120100-
NORTHEAST MONTANA

CITY           SKY/WX    TMP DP  RH WIND       PRES   REMARKS
GLASGOW        CLOUDY    31  24  75 NE3       30.23R
JORDAN           N/A     33  29  85 NE9       30.21R WCI  25
SIDNEY         CLOUDY    27  19  74 NW7       30.25R WCI  19
WOLF POINT     CLOUDY    29  20  69 E3        30.26R
PLENTYWOOD       N/A     21  18  86 N7        30.24S WCI  13
POPLAR           N/A     27  19  74 N3        30.26R
$$

MTZ028>42-056>058-120100-
SOUTHCENTRAL AND SOUTHEAST MONTANA

CITY           SKY/WX    TMP DP  RH WIND       PRES   REMARKS
BAKER          CLOUDY    30  25  81 NW15      30.18R WCI  19
BILLINGS       MOCLDY    54  20  26 N14       30.18R
LIVINGSTON     CLOUDY    52  21  29 W9        30.22R
MILES CITY     MOCLDY    38  30  73 N10       30.19R WCI  31
FORSYTH          N/A     45  34  65 N5        30.19R
LAUREL           N/A     54  19  25 W8        30.16R
ROUNDUP          N/A     51  20  29 NW8       30.08R
$$

REGIONAL REPORTS...DAKOTAS

CITY           SKY/WX    TMP DP  RH WIND       PRES   REMARKS
WILLISTON      CLOUDY    23  16  74 N9        30.26R WCI  13
MINOT          CLOUDY    21  11  65 N7        30.24R WCI  12
DICKINSON      CLOUDY    23  18  81 N6        30.17R WCI  16
BEACH          CLOUDY    27  27 100 N12       30.22R WCI  16
CROSBY         CLOUDY    19  18  93 NW12      30.28R WCI   7
TIOGA          CLOUDY    19  18  93 N10       30.28R WCI   8
WATFORD CITY   CLOUDY    23  19  86 NW8       30.24R WCI  14
BISMARCK       CLOUDY    24  15  68 N6        30.22R WCI  17
GRAND FORKS    CLOUDY    14   8  77 N8        30.26R WCI   3
FARGO          CLOUDY    14   3  61 NW6       30.25R WCI   5
BUFFALO SD       N/A     33  29  85 N8        30.09R WCI  26
RAPID CITY     CLOUDY    46  31  55 N18G29    30.10R
$$

REGIONAL REPORTS...WYOMING/IDAHO/WASHINGTON

CITY           SKY/WX    TMP DP  RH WIND       PRES   REMARKS
GILLETTE       CLEAR     45  26  47 NW13      30.15R
SHERIDAN       MOCLDY    52  19  28 NW8       30.14F
BUFFALO WY     CLOUDY    47  24  40 NW3       30.19R
CODY           CLOUDY    55  18  22 NW12      30.20R
YELLOWSTONE LA   N/A     40  19  43 W5        30.34R
IDAHO FALLS    CLOUDY    27  22  81 N7        30.40R WCI  19
SALMON         MOCLDY    30  21  69 CALM      30.35S
BOISE          CLOUDY    46  35  65 SW5       30.33R
SPOKANE        LGT RAIN  42  37  82 NE9       30.25R
$$

REGIONAL REPORTS...ALBERTA

CITY           SKY/WX    TMP DP  RH WIND       PRES   REMARKS
EDMONTON       MOCLDY    19  12  73 NE8       30.29R WCI   9
CALGARY        PTCLDY    41  30  65 E8        30.20R
LETHBRIDGE     MOCLDY    43  34  70 E7        30.23R
MEDICINE HAT   MOCLDY    36  34  93 S5        30.23R
WATERTON GATE    N/A     45  25  45 SW12G17     N/A
CARDSTON         N/A     45  32  61 E7          N/A
MILK RIVER       N/A     39  32  75 N7          N/A
ONEFOUR          N/A     34  32  93 NW16        N/A  WCI  23
$$

REGIONAL REPORTS...SASKATCHEWAN

CITY           SKY/WX    TMP DP  RH WIND       PRES   REMARKS
SWIFT CURRENT  CLOUDY    19  18  93 NE3       30.22R
REGINA         CLOUDY    14   7  73 N12       30.29R WCI   0
SASKATOON      CLOUDY     9   3  78 NE6       30.38R WCI  -1
VAL MARIE        N/A     27  25  93 NE6         N/A  WCI  20
ROCKGLEN         N/A     19  18  93 N9          N/A  WCI   9
ASSINIBOIA       N/A     18  14  86 NE6         N/A  WCI   9
$$




USA.gov is the U.S. government's official web portal to all federal, state and local government web resources and services.